User: anonymous   Login
Location: Unspecified
(0.0000°N, 0.0000°E)
Time: 01:07:33
(UTC+00:00)
Language:

STARLINK-6190 - Orbit

View from above orbital plane
View from above orbital plane
View from above satellite
View from above satellite

Ground track
Ground track

The orbit is defined by the following mean orbital elements,

1 56774U          26145.52421307 +.00000000 +00000-0 +37889-3 0 00002
2 56774  69.9987 170.8273 0003668 266.3329  93.7410 14.98308604    08
Epoch (UTC): 25 May 2026 12:34:52
Eccentricity: 0.0003668
inclination: 69.9987°
perigee height: 570 km
apogee height: 575 km
right ascension of ascending node: 170.8273°
argument of perigee: 266.3329°
revolutions per day: 14.98308604
mean anomaly at epoch: 93.7410°

The dashed part of the orbit path shows where the satellite is in the earth's shadow,  

DLR